Home > Weather > Teresina > Past weeks

Flag for Brazil Past Weather in Teresina, Piauí, Brazil — Yesterday and Last 2 Weeks

Now
86 °F

Clear.


Feels Like: 85 °F
Forecast: 79 / 99 °F
Wind: 6 mph from South

Location: Teresina Aeroporto

Current Time: Aug 29, 2016 at 12:56:51 AM

Latest Report: Aug 28, 2016 at 11:00 PM


Visibility: 10 mi

Pressure: 29.89 "Hg

Humidity: 40%

Dew Point: 59 °F

Location of TeresinaLocation

Past Weather in Teresina — Graph

°F

Teresina Temperature Yesterday

Maximum temperature yesterday: 99 °F (at 3:00 PM)
Minimum temperature yesterday: 77 °F (at 5:00 AM)
Average temperature yesterday: 88 °F

High & Low Weather Summary for the Past Weeks

 TemperatureHumidityPressure
High100 °F (Aug 17, 3:00 PM)89% (Aug 15, 6:00 AM)30.01 "Hg (Aug 15, 6:00 AM)
Low72 °F (Aug 14, 6:00 AM)15% (Aug 25, 6:00 PM)29.74 "Hg (Aug 18, 5:00 PM)
Average87 °F50%29.88 "Hg
* Reported Aug 13 10:00 PM — Aug 28 10:00 PM, Teresina, Weather by CustomWeather, © 2016

Note: Actual official high and low records may vary slightly from our data, if they occured in-between our weather recording intervals... More about our weather records

Advertising

Teresina Weather History for the Previous 24 Hours

Scroll right to see more
 ConditionsComfort  
Time TempWeatherWind HumidityBarometerVisibility
10:00 PM
Sun, Aug 28
86 °FClear.3 mph40%29.86 "Hg10 mi
9:00 PM86 °FClear.6 mph40%29.86 "Hg10 mi
8:00 PM88 °FClear.5 mph38%29.83 "Hg10 mi
7:00 PM91 °FClear.5 mph32%29.83 "Hg10 mi
6:00 PM95 °FClear.6 mph26%29.80 "Hg10 mi
5:00 PM97 °FPassing clouds.9 mph25%29.80 "HgN/A
4:00 PM99 °FPassing clouds.7 mph27%29.80 "HgN/A
3:00 PM99 °FPassing clouds.7 mph27%29.80 "HgN/A
2:00 PM97 °FPassing clouds.8 mph28%29.83 "HgN/A
1:00 PM95 °FScattered clouds.6 mph32%29.86 "HgN/A
12:00 PM93 °FScattered clouds.8 mph34%29.92 "HgN/A
11:00 AM91 °FScattered clouds.10 mph38%29.92 "HgN/A
10:00 AM90 °FScattered clouds.8 mph41%29.95 "HgN/A
9:00 AM86 °FScattered clouds.8 mph55%29.95 "HgN/A
8:00 AM82 °FSunny.3 mph70%29.95 "Hg10 mi
7:00 AM79 °FSunny.2 mph79%29.95 "Hg10 mi
6:00 AM77 °FSunny.No wind83%29.89 "Hg10 mi
5:00 AM77 °FClear.1 mph83%29.89 "Hg10 mi
4:00 AM79 °FClear.3 mph79%29.86 "Hg10 mi
3:00 AM79 °FClear.5 mph79%29.86 "Hg10 mi
1:00 AM82 °FClear.5 mph66%29.86 "Hg10 mi
12:00 AM82 °FClear.9 mph66%29.89 "Hg10 mi
Weather by CustomWeather, © 2016

See weather overviewHow to use our weather pages